| time (UTC) | temp F | wind direction | speed MPH | gust MPH | rain 1hr in | rain 24hr in | rain mn in | humidity % | barometer mb |
| 20260506191346 | 58 | 36 | 3.0 | 6.0 | 0.00 | 0.02 | 0.02 | 34 | 1018.1 |
| 20260506190844 | 58 | 240 | 1.0 | 3.0 | 0.00 | 0.02 | 0.02 | 33 | 1018.0 |
| 20260506190339 | 57 | 87 | 0.0 | 1.0 | 0.00 | 0.02 | 0.02 | 34 | 1018.1 |
| 20260506185837 | 57 | 336 | 3.0 | 6.0 | 0.00 | 0.02 | 0.02 | 33 | 1018.0 |
| 20260506185334 | 57 | 283 | 2.0 | 2.0 | 0.00 | 0.02 | 0.02 | 36 | 1018.0 |
| 20260506184831 | 57 | 219 | 2.0 | 2.0 | 0.00 | 0.02 | 0.02 | 37 | 1018.4 |
| 20260506184328 | 56 | 266 | 3.0 | 5.0 | 0.00 | 0.02 | 0.02 | 35 | 1018.5 |
| 20260506183826 | 57 | 335 | 4.0 | 5.0 | 0.00 | 0.02 | 0.02 | 34 | 1018.3 |
| 20260506183320 | 57 | 32 | 3.0 | 3.0 | 0.00 | 0.02 | 0.02 | 36 | 1018.3 |
| 20260506182818 | 57 | 320 | 1.0 | 2.0 | 0.00 | 0.02 | 0.02 | 36 | 1018.7 |
| 20260506182315 | 58 | 337 | 2.0 | 2.0 | 0.00 | 0.02 | 0.02 | 34 | 1018.4 |
| 20260506181813 | 57 | 354 | 2.0 | 3.0 | 0.00 | 0.02 | 0.02 | 32 | 1018.9 |
| 20260506181310 | 57 | 358 | 4.0 | 6.0 | 0.00 | 0.02 | 0.02 | 33 | 1018.9 |
| 20260506180807 | 57 | 38 | 1.0 | 2.0 | 0.00 | 0.02 | 0.02 | 35 | 1018.6 |
| 20260506180303 | 57 | 311 | 3.0 | 3.0 | 0.00 | 0.02 | 0.02 | 34 | 1018.9 |
| 20260506175754 | 57 | 353 | 2.0 | 2.0 | 0.00 | 0.02 | 0.02 | 36 | 1018.8 |
| 20260506175251 | 56 | 331 | 1.0 | 2.0 | 0.00 | 0.02 | 0.02 | 37 | 1018.7 |
| 20260506174749 | 55 | 18 | 2.0 | 3.0 | 0.00 | 0.02 | 0.02 | 36 | 1018.5 |
| 20260506174246 | 56 | 302 | 3.0 | 6.0 | 0.00 | 0.02 | 0.02 | 35 | 1018.6 |
| 20260506173743 | 55 | 47 | 1.0 | 2.0 | 0.00 | 0.02 | 0.02 | 35 | 1018.8 |
| 20260506173240 | 55 | 47 | 3.0 | 7.0 | 0.00 | 0.02 | 0.02 | 34 | 1018.8 |
| 20260506172736 | 55 | 344 | 2.0 | 2.0 | 0.00 | 0.02 | 0.02 | 39 | 1018.4 |
| 20260506172233 | 55 | 301 | 3.0 | 6.0 | 0.00 | 0.02 | 0.02 | 36 | 1018.5 |
| 20260506171725 | 55 | 336 | 3.0 | 3.0 | 0.00 | 0.02 | 0.02 | 37 | 1018.6 |
| 20260506171222 | 56 | 9 | 1.0 | 2.0 | 0.00 | 0.02 | 0.02 | 37 | 1018.6 |
| 20260506170719 | 56 | 22 | 2.0 | 3.0 | 0.00 | 0.02 | 0.02 | 39 | 1018.6 |
| 20260506170216 | 56 | 23 | 1.0 | 5.0 | 0.00 | 0.02 | 0.02 | 35 | 1018.5 |
| 20260506165715 | 56 | 19 | 2.0 | 3.0 | 0.00 | 0.02 | 0.02 | 39 | 1018.8 |
| 20260506165211 | 56 | 43 | 1.0 | 6.0 | 0.00 | 0.02 | 0.02 | 37 | 1018.9 |
| 20260506164709 | 57 | 49 | 1.0 | 5.0 | 0.00 | 0.02 | 0.02 | 37 | 1018.6 |
| 20260506164206 | 57 | 45 | 0.0 | 3.0 | 0.00 | 0.02 | 0.02 | 38 | 1018.6 |
| 20260506163702 | 56 | 9 | 2.0 | 2.0 | 0.00 | 0.02 | 0.02 | 38 | 1018.6 |
| 20260506163157 | 55 | 35 | 2.0 | 3.0 | 0.00 | 0.02 | 0.02 | 39 | 1018.6 |
| 20260506162653 | 55 | 334 | 3.0 | 5.0 | 0.00 | 0.02 | 0.02 | 34 | 1018.6 |
| 20260506162151 | 57 | 50 | 0.0 | 2.0 | 0.00 | 0.02 | 0.02 | 38 | 1018.7 |
| 20260506161648 | 55 | 62 | 1.0 | 7.0 | 0.00 | 0.02 | 0.02 | 38 | 1018.7 |
| 20260506161144 | 55 | 310 | 3.0 | 5.0 | 0.00 | 0.02 | 0.02 | 38 | 1018.7 |
| 20260506160642 | 55 | 31 | 2.0 | 5.0 | 0.00 | 0.02 | 0.02 | 36 | 1018.7 |
| 20260506160138 | 56 | 22 | 1.0 | 2.0 | 0.00 | 0.02 | 0.02 | 39 | 1018.4 |
| 20260506155637 | 56 | 49 | 2.0 | 6.0 | 0.00 | 0.02 | 0.02 | 41 | 1018.2 |
| 20260506155134 | 54 | 46 | 3.0 | 3.0 | 0.00 | 0.02 | 0.02 | 40 | 1018.2 |
| 20260506153236 | 53 | 39 | 2.0 | 5.0 | 0.00 | 0.02 | 0.02 | 38 | 1018.2 |
| 20260506152733 | 54 | 332 | 2.0 | 3.0 | 0.00 | 0.02 | 0.02 | 39 | 1018.2 |
| 20260506152230 | 54 | 345 | 3.0 | 5.0 | 0.00 | 0.02 | 0.02 | 40 | 1018.1 |
| 20260506151729 | 55 | 313 | 1.0 | 2.0 | 0.00 | 0.02 | 0.02 | 44 | 1018.1 |
| 20260506151225 | 54 | 359 | 1.0 | 2.0 | 0.00 | 0.02 | 0.02 | 40 | 1018.3 |
| 20260506150721 | 54 | 57 | 1.0 | 2.0 | 0.00 | 0.02 | 0.02 | 45 | 1018.1 |
| 20260506150219 | 54 | 338 | 2.0 | 3.0 | 0.00 | 0.02 | 0.02 | 45 | 1018.3 |
| 20260506145716 | 55 | 24 | 1.0 | 3.0 | 0.00 | 0.02 | 0.02 | 44 | 1018.2 |
| 20260506145212 | 54 | 14 | 2.0 | 2.0 | 0.00 | 0.02 | 0.02 | 45 | 1018.3 |
| 20260506144710 | 53 | 84 | 0.0 | 2.0 | 0.00 | 0.02 | 0.02 | 47 | 1018.5 |
| 20260506144206 | 53 | 36 | 1.0 | 3.0 | 0.00 | 0.02 | 0.02 | 45 | 1018.1 |
| 20260506143704 | 53 | 54 | 0.0 | 2.0 | 0.00 | 0.02 | 0.02 | 49 | 1018.0 |
| 20260506143202 | 54 | 58 | 0.0 | 0.0 | 0.00 | 0.02 | 0.02 | 54 | 1017.9 |
| 20260506142700 | 53 | 37 | 1.0 | 2.0 | 0.00 | 0.02 | 0.02 | 52 | 1018.3 |
| 20260506142158 | 52 | 53 | 0.0 | 0.0 | 0.00 | 0.02 | 0.02 | 57 | 1018.0 |
| 20260506141655 | 51 | 38 | 1.0 | 2.0 | 0.00 | 0.02 | 0.02 | 58 | 1018.3 |
| 20260506141153 | 51 | 44 | 2.0 | 2.0 | 0.00 | 0.02 | 0.02 | 57 | 1018.0 |
| 20260506140650 | 51 | 52 | 0.0 | 2.0 | 0.00 | 0.02 | 0.02 | 58 | 1017.9 |
| 20260506140148 | 51 | 53 | 0.0 | 0.0 | 0.00 | 0.02 | 0.02 | 58 | 1017.7 |
| 20260506135644 | 50 | 41 | 1.0 | 2.0 | 0.00 | 0.02 | 0.02 | 61 | 1017.7 |
| 20260506135141 | 50 | 55 | 1.0 | 2.0 | 0.00 | 0.02 | 0.02 | 61 | 1017.6 |
| 20260506134637 | 50 | 50 | 0.0 | 1.0 | 0.00 | 0.02 | 0.02 | 61 | 1017.7 |
| 20260506134133 | 49 | 50 | 0.0 | 2.0 | 0.00 | 0.02 | 0.02 | 64 | 1017.9 |
| 20260506133631 | 49 | 7 | 1.0 | 2.0 | 0.00 | 0.02 | 0.02 | 62 | 1017.7 |
| 20260506133127 | 49 | 49 | 0.0 | 2.0 | 0.00 | 0.02 | 0.02 | 62 | 1017.4 |
| 20260506132625 | 49 | 39 | 2.0 | 3.0 | 0.00 | 0.02 | 0.02 | 62 | 1017.4 |
| 20260506132122 | 49 | 52 | 0.0 | 1.0 | 0.00 | 0.02 | 0.02 | 65 | 1017.4 |
| 20260506131619 | 49 | 39 | 0.0 | 3.0 | 0.00 | 0.02 | 0.02 | 63 | 1017.2 |
| 20260506131115 | 49 | 38 | 1.0 | 2.0 | 0.00 | 0.02 | 0.02 | 64 | 1017.1 |
| 20260506130612 | 49 | 34 | 1.0 | 2.0 | 0.00 | 0.02 | 0.02 | 66 | 1017.0 |
| 20260506130110 | 48 | 45 | 1.0 | 2.0 | 0.00 | 0.02 | 0.02 | 68 | 1017.0 |
| 20260506125608 | 48 | 357 | 2.0 | 2.0 | 0.00 | 0.02 | 0.02 | 68 | 1017.0 |
| 20260506125106 | 48 | 52 | 1.0 | 3.0 | 0.00 | 0.02 | 0.02 | 72 | 1017.1 |
| 20260506124603 | 48 | 44 | 1.0 | 2.0 | 0.00 | 0.02 | 0.02 | 74 | 1016.8 |
| 20260506124101 | 47 | 50 | 1.0 | 1.0 | 0.00 | 0.02 | 0.02 | 81 | 1016.4 |
| 20260506123558 | 47 | 58 | 0.0 | 0.0 | 0.00 | 0.02 | 0.02 | 84 | 1016.7 |
| 20260506123057 | 47 | 58 | 0.0 | 0.0 | 0.00 | 0.02 | 0.02 | 85 | 1016.8 |
| 20260506122553 | 47 | 58 | 0.0 | 0.0 | 0.00 | 0.02 | 0.02 | 86 | 1016.3 |
| 20260506122051 | 46 | 57 | 0.0 | 0.0 | 0.00 | 0.02 | 0.02 | 88 | 1016.3 |
| 20260506121549 | 46 | 57 | 0.0 | 0.0 | 0.00 | 0.02 | 0.02 | 90 | 1016.4 |
| 20260506121044 | 46 | 59 | 0.0 | 0.0 | 0.00 | 0.02 | 0.02 | 89 | 1016.0 |
| 20260506120542 | 45 | 59 | 0.0 | 0.0 | 0.00 | 0.02 | 0.02 | 89 | 1016.1 |
| 20260506120039 | 44 | 59 | 0.0 | 0.0 | 0.00 | 0.02 | 0.02 | 91 | 1015.8 |
| 20260506115537 | 45 | 58 | 0.0 | 0.0 | 0.00 | 0.02 | 0.02 | 92 | 1015.5 |
| 20260506115036 | 44 | 56 | 0.0 | 0.0 | 0.00 | 0.02 | 0.02 | 91 | 1015.6 |
| 20260506114532 | 44 | 72 | 0.0 | 0.0 | 0.00 | 0.02 | 0.02 | 94 | 1015.6 |
| 20260506114031 | 44 | 72 | 0.0 | 0.0 | 0.00 | 0.02 | 0.02 | 95 | 1015.5 |
| 20260506113528 | 44 | 72 | 0.0 | 0.0 | 0.00 | 0.02 | 0.02 | 95 | 1015.5 |
| 20260506113026 | 44 | 72 | 0.0 | 0.0 | 0.00 | 0.02 | 0.02 | 95 | 1015.4 |
| 20260506112522 | 44 | 72 | 0.0 | 0.0 | 0.00 | 0.02 | 0.02 | 95 | 1015.3 |
| 20260506112019 | 45 | 72 | 0.0 | 0.0 | 0.00 | 0.02 | 0.02 | 94 | 1015.6 |
| 20260506111518 | 45 | 72 | 0.0 | 0.0 | 0.00 | 0.02 | 0.02 | 95 | 1015.7 |
| 20260506111014 | 45 | 72 | 0.0 | 0.0 | 0.00 | 0.02 | 0.02 | 94 | 1015.7 |
| 20260506110512 | 45 | 72 | 0.0 | 0.0 | 0.00 | 0.02 | 0.02 | 93 | 1015.5 |
| 20260506110009 | 45 | 71 | 0.0 | 0.0 | 0.00 | 0.02 | 0.02 | 92 | 1015.7 |
| 20260506105505 | 45 | 78 | 0.0 | 0.0 | 0.00 | 0.02 | 0.02 | 91 | 1015.7 |
| 20260506105002 | 45 | 63 | 0.0 | 0.0 | 0.00 | 0.02 | 0.02 | 91 | 1015.8 |
| 20260506104500 | 45 | 57 | 0.0 | 0.0 | 0.00 | 0.02 | 0.02 | 91 | 1016.1 |
| 20260506103958 | 45 | 68 | 0.0 | 0.0 | 0.00 | 0.02 | 0.02 | 91 | 1015.6 |
| 20260506103455 | 45 | 68 | 0.0 | 0.0 | 0.00 | 0.02 | 0.02 | 91 | 1015.5 |
| 20260506102952 | 45 | 28 | 1.0 | 1.0 | 0.00 | 0.02 | 0.02 | 90 | 1015.8 |
| 20260506102450 | 45 | 43 | 0.0 | 1.0 | 0.00 | 0.02 | 0.02 | 91 | 1015.7 |
| 20260506101947 | 45 | 1 | 1.0 | 1.0 | 0.00 | 0.02 | 0.02 | 92 | 1015.8 |
| 20260506101443 | 45 | 17 | 1.0 | 2.0 | 0.00 | 0.02 | 0.02 | 93 | 1015.7 |
| 20260506100941 | 45 | 31 | 0.0 | 1.0 | 0.00 | 0.02 | 0.02 | 92 | 1015.4 |
| 20260506100439 | 45 | 47 | 0.0 | 0.0 | 0.00 | 0.02 | 0.02 | 93 | 1015.2 |
| 20260506095937 | 45 | 47 | 0.0 | 0.0 | 0.00 | 0.02 | 0.02 | 94 | 1015.0 |
| 20260506095435 | 45 | 47 | 0.0 | 0.0 | 0.00 | 0.02 | 0.02 | 93 | 1015.0 |
| 20260506094931 | 45 | 47 | 0.0 | 0.0 | 0.00 | 0.02 | 0.02 | 94 | 1015.2 |
| 20260506094430 | 45 | 47 | 0.0 | 0.0 | 0.00 | 0.02 | 0.02 | 93 | 1015.1 |
| 20260506093927 | 44 | 47 | 0.0 | 0.0 | 0.00 | 0.02 | 0.02 | 93 | 1015.1 |
| 20260506093425 | 44 | 69 | 0.0 | 0.0 | 0.00 | 0.02 | 0.02 | 94 | 1015.1 |
| 20260506092922 | 44 | 37 | 0.0 | 1.0 | 0.00 | 0.02 | 0.02 | 95 | 1015.1 |
| 20260506092420 | 45 | 59 | 1.0 | 1.0 | 0.00 | 0.02 | 0.02 | 95 | 1015.1 |
| 20260506091916 | 45 | 45 | 1.0 | 1.0 | 0.00 | 0.02 | 0.02 | 95 | 1014.9 |
| 20260506091414 | 45 | 45 | 1.0 | 1.0 | 0.00 | 0.02 | 0.02 | 94 | 1015.1 |
| 20260506090911 | 45 | 48 | 0.0 | 0.0 | 0.00 | 0.02 | 0.02 | 94 | 1014.8 |
| 20260506090409 | 45 | 49 | 0.0 | 0.0 | 0.00 | 0.02 | 0.02 | 93 | 1015.1 |
| 20260506085905 | 45 | 49 | 0.0 | 0.0 | 0.00 | 0.02 | 0.02 | 93 | 1014.9 |
| 20260506085402 | 45 | 51 | 0.0 | 0.0 | 0.00 | 0.02 | 0.02 | 92 | 1014.9 |
| 20260506084858 | 45 | 52 | 0.0 | 0.0 | 0.00 | 0.02 | 0.02 | 92 | 1014.9 |
| 20260506084355 | 45 | 52 | 0.0 | 0.0 | 0.00 | 0.02 | 0.02 | 93 | 1015.0 |
| 20260506083852 | 45 | 52 | 0.0 | 0.0 | 0.00 | 0.02 | 0.02 | 93 | 1014.8 |
| 20260506083349 | 45 | 55 | 0.0 | 0.0 | 0.00 | 0.02 | 0.02 | 93 | 1014.8 |
| 20260506082846 | 45 | 57 | 0.0 | 0.0 | 0.00 | 0.02 | 0.02 | 93 | 1015.0 |
| 20260506082343 | 45 | 59 | 0.0 | 0.0 | 0.00 | 0.02 | 0.02 | 93 | 1014.7 |
| 20260506081833 | 45 | 60 | 0.0 | 0.0 | 0.00 | 0.02 | 0.02 | 93 | 1014.6 |
| 20260506081332 | 45 | 61 | 0.0 | 0.0 | 0.00 | 0.02 | 0.02 | 93 | 1014.6 |
| 20260506080829 | 45 | 61 | 0.0 | 0.0 | 0.00 | 0.02 | 0.02 | 92 | 1014.4 |
| 20260506080326 | 45 | 61 | 0.0 | 0.0 | 0.00 | 0.02 | 0.02 | 92 | 1014.2 |
| 20260506073310 | 45 | 76 | 0.0 | 0.0 | 0.00 | 0.02 | 0.02 | 89 | 1014.2 |
| 20260506072807 | 45 | 78 | 0.0 | 0.0 | 0.00 | 0.02 | 0.02 | 86 | 1013.9 |
| 20260506072306 | 45 | 77 | 0.0 | 0.0 | 0.00 | 0.02 | 0.02 | 86 | 1013.7 |
| 20260506071801 | 45 | 77 | 0.0 | 0.0 | 0.00 | 0.02 | 0.02 | 86 | 1013.7 |
| 20260506071259 | 45 | 79 | 0.0 | 0.0 | 0.00 | 0.02 | 0.02 | 85 | 1013.7 |
| 20260506070756 | 45 | 81 | 0.0 | 0.0 | 0.00 | 0.02 | 0.02 | 86 | 1013.5 |
| 20260506070253 | 45 | 70 | 0.0 | 1.0 | 0.00 | 0.02 | 0.02 | 88 | 1013.5 |
| 20260506062225 | 45 | 62 | 0.0 | 0.0 | 0.00 | 0.02 | 0.02 | 87 | 1014.5 |
| 20260506061720 | 46 | 61 | 0.0 | 0.0 | 0.00 | 0.02 | 0.02 | 85 | 1014.8 |
| 20260506061218 | 45 | 52 | 0.0 | 0.0 | 0.00 | 0.02 | 0.02 | 84 | 1014.9 |
| 20260506060717 | 45 | 49 | 0.0 | 0.0 | 0.00 | 0.02 | 0.02 | 87 | 1014.9 |
| 20260506060213 | 45 | 49 | 0.0 | 0.0 | 0.00 | 0.02 | 0.02 | 85 | 1014.8 |
| 20260506051145 | 48 | 341 | 2.0 | 5.0 | 0.05 | 0.01 | 0.01 | 74 | 1014.9 |
| 20260506050643 | 48 | 0 | 1.0 | 5.0 | 0.00 | 0.00 | 0.00 | 72 | 1014.9 |
| 20260506050140 | 49 | 343 | 4.0 | 8.0 | 0.00 | 0.00 | 0.00 | 67 | 1014.8 |
| 20260506045133 | 50 | 327 | 3.0 | 6.0 | 0.00 | 0.34 | 0.34 | 63 | 1014.7 |
| 20260506044631 | 50 | 358 | 2.0 | 3.0 | 0.07 | 0.34 | 0.34 | 61 | 1014.4 |
| 20260506044128 | 50 | 15 | 2.0 | 7.0 | 0.07 | 0.34 | 0.34 | 58 | 1014.2 |
| 20260506043625 | 50 | 293 | 4.0 | 5.0 | 0.00 | 0.33 | 0.33 | 62 | 1014.4 |
| 20260506043123 | 51 | 52 | 0.0 | 2.0 | 0.00 | 0.33 | 0.33 | 60 | 1014.5 |
| 20260506042622 | 50 | 21 | 2.0 | 5.0 | 0.05 | 0.33 | 0.33 | 61 | 1014.6 |
| 20260506042119 | 51 | 322 | 3.0 | 8.0 | 0.05 | 0.33 | 0.33 | 58 | 1014.2 |
| 20260506041618 | 51 | 47 | 0.0 | 1.0 | 0.00 | 0.32 | 0.32 | 61 | 1014.2 |
| 20260506041114 | 51 | 335 | 2.0 | 3.0 | 0.00 | 0.32 | 0.32 | 64 | 1013.9 |
| 20260506040612 | 51 | 82 | 0.0 | 0.0 | 0.00 | 0.32 | 0.32 | 59 | 1013.9 |
| 20260506040109 | 51 | 67 | 0.0 | 0.0 | 0.00 | 0.32 | 0.32 | 58 | 1013.7 |
| 20260506035605 | 51 | 62 | 0.0 | 5.0 | 0.00 | 0.32 | 0.32 | 57 | 1013.7 |
| 20260506035101 | 50 | 121 | 0.0 | 0.0 | 0.00 | 0.32 | 0.32 | 71 | 1013.9 |
| 20260506034559 | 50 | 47 | 0.0 | 0.0 | 0.00 | 0.32 | 0.32 | 69 | 1013.4 |
| 20260506034056 | 51 | 356 | 1.0 | 2.0 | 0.00 | 0.32 | 0.32 | 67 | 1013.5 |
| 20260506033553 | 51 | 46 | 0.0 | 1.0 | 0.00 | 0.32 | 0.32 | 65 | 1013.4 |
| 20260506033050 | 51 | 47 | 0.0 | 0.0 | 0.00 | 0.32 | 0.32 | 64 | 1013.0 |
| 20260506032548 | 51 | 46 | 0.0 | 1.0 | 0.00 | 0.32 | 0.32 | 64 | 1013.0 |
| 20260506032044 | 51 | 49 | 0.0 | 0.0 | 0.00 | 0.32 | 0.32 | 65 | 1012.8 |
| 20260506031542 | 51 | 45 | 0.0 | 1.0 | 0.00 | 0.32 | 0.32 | 63 | 1013.0 |
| 20260506031038 | 51 | 45 | 0.0 | 1.0 | 0.00 | 0.32 | 0.32 | 65 | 1012.7 |
| 20260506030537 | 51 | 45 | 0.0 | 1.0 | 0.00 | 0.32 | 0.32 | 64 | 1012.5 |
| 20260506030034 | 51 | 45 | 0.0 | 2.0 | 0.00 | 0.32 | 0.32 | 64 | 1012.5 |
| 20260506025531 | 51 | 39 | 1.0 | 2.0 | 0.00 | 0.32 | 0.32 | 64 | 1012.4 |
| 20260506025026 | 51 | 25 | 1.0 | 2.0 | 0.00 | 0.32 | 0.32 | 64 | 1012.3 |
| 20260506024524 | 51 | 41 | 1.0 | 2.0 | 0.00 | 0.32 | 0.32 | 64 | 1012.3 |
| 20260506024020 | 51 | 30 | 1.0 | 2.0 | 0.00 | 0.32 | 0.32 | 63 | 1012.4 |
| 20260506023516 | 51 | 39 | 1.0 | 2.0 | 0.00 | 0.32 | 0.32 | 64 | 1012.1 |
| 20260506023014 | 51 | 26 | 1.0 | 5.0 | 0.00 | 0.32 | 0.32 | 64 | 1012.2 |
| 20260506022511 | 51 | 23 | 2.0 | 3.0 | 0.00 | 0.32 | 0.32 | 65 | 1012.5 |
| 20260506022009 | 51 | 25 | 3.0 | 5.0 | 0.00 | 0.32 | 0.32 | 67 | 1012.2 |
| 20260506021506 | 50 | 35 | 1.0 | 2.0 | 0.00 | 0.32 | 0.32 | 78 | 1011.9 |
| 20260506021003 | 50 | 3 | 2.0 | 2.0 | 0.00 | 0.32 | 0.32 | 82 | 1012.1 |
| 20260506020500 | 50 | 45 | 0.0 | 0.0 | 0.00 | 0.32 | 0.32 | 89 | 1011.7 |
| 20260506015957 | 50 | 45 | 0.0 | 0.0 | 0.00 | 0.32 | 0.32 | 93 | 1011.9 |
| 20260506015456 | 50 | 45 | 0.0 | 0.0 | 0.00 | 0.32 | 0.32 | 92 | 1011.5 |
| 20260506014952 | 51 | 45 | 0.0 | 0.0 | 0.00 | 0.32 | 0.32 | 91 | 1011.6 |
| 20260506014449 | 50 | 45 | 0.0 | 0.0 | 0.00 | 0.32 | 0.32 | 90 | 1011.5 |
| 20260506013945 | 50 | 45 | 0.0 | 0.0 | 0.00 | 0.32 | 0.32 | 90 | 1011.5 |
| 20260506013443 | 51 | 45 | 0.0 | 0.0 | 0.00 | 0.32 | 0.32 | 92 | 1011.6 |
| 20260506012939 | 51 | 45 | 0.0 | 0.0 | 0.00 | 0.32 | 0.32 | 91 | 1011.3 |
| 20260506012436 | 51 | 45 | 0.0 | 0.0 | 0.00 | 0.32 | 0.32 | 91 | 1011.4 |
| 20260506011933 | 51 | 45 | 0.0 | 0.0 | 0.00 | 0.32 | 0.32 | 91 | 1011.2 |
| 20260506011430 | 51 | 45 | 0.0 | 0.0 | 0.00 | 0.32 | 0.32 | 89 | 1011.3 |
| 20260506010927 | 51 | 45 | 0.0 | 0.0 | 0.00 | 0.32 | 0.32 | 88 | 1011.4 |
| 20260506010426 | 51 | 45 | 0.0 | 0.0 | 0.00 | 0.32 | 0.32 | 88 | 1011.4 |
| 20260506005921 | 52 | 45 | 0.0 | 0.0 | 0.00 | 0.32 | 0.32 | 87 | 1011.1 |
| 20260506005420 | 52 | 45 | 0.0 | 0.0 | 0.00 | 0.32 | 0.32 | 86 | 1011.2 |
| 20260506004914 | 52 | 45 | 0.0 | 0.0 | 0.00 | 0.32 | 0.32 | 86 | 1011.4 |
| 20260506004413 | 52 | 45 | 0.0 | 0.0 | 0.00 | 0.32 | 0.32 | 85 | 1011.2 |
| 20260506003908 | 52 | 45 | 0.0 | 0.0 | 0.00 | 0.32 | 0.32 | 85 | 1011.3 |
| 20260506003404 | 52 | 45 | 0.0 | 0.0 | 0.00 | 0.32 | 0.32 | 84 | 1011.0 |
| 20260506002902 | 52 | 45 | 0.0 | 0.0 | 0.00 | 0.32 | 0.32 | 83 | 1011.1 |
| 20260506002357 | 52 | 45 | 0.0 | 0.0 | 0.00 | 0.32 | 0.32 | 83 | 1011.1 |
| 20260506001853 | 52 | 45 | 0.0 | 0.0 | 0.00 | 0.32 | 0.32 | 84 | 1011.0 |
| 20260506001350 | 52 | 44 | 0.0 | 0.0 | 0.00 | 0.32 | 0.32 | 83 | 1010.9 |
| 20260506000847 | 52 | 46 | 0.0 | 0.0 | 0.00 | 0.32 | 0.32 | 83 | 1010.9 |
| 20260506000346 | 52 | 46 | 0.0 | 0.0 | 0.00 | 0.32 | 0.32 | 83 | 1010.9 |
| 20260505235842 | 52 | 46 | 0.0 | 0.0 | 0.00 | 0.32 | 0.32 | 82 | 1010.6 |
| 20260505235340 | 52 | 46 | 0.0 | 0.0 | 0.00 | 0.32 | 0.32 | 81 | 1010.9 |
| 20260505234836 | 52 | 46 | 0.0 | 0.0 | 0.00 | 0.32 | 0.32 | 81 | 1011.0 |
| 20260505234334 | 53 | 46 | 0.0 | 0.0 | 0.00 | 0.32 | 0.32 | 82 | 1011.0 |
| 20260505233830 | 52 | 46 | 0.0 | 0.0 | 0.00 | 0.32 | 0.32 | 81 | 1011.0 |
| 20260505233329 | 52 | 46 | 0.0 | 0.0 | 0.00 | 0.32 | 0.32 | 81 | 1010.9 |
| 20260505232825 | 52 | 46 | 0.0 | 0.0 | 0.00 | 0.32 | 0.32 | 82 | 1011.0 |
| 20260505232323 | 52 | 46 | 0.0 | 0.0 | 0.00 | 0.32 | 0.32 | 82 | 1011.2 |
| 20260505231819 | 52 | 46 | 0.0 | 0.0 | 0.00 | 0.32 | 0.32 | 81 | 1010.9 |
| 20260505231318 | 52 | 46 | 0.0 | 0.0 | 0.00 | 0.32 | 0.32 | 81 | 1011.2 |
| 20260505230816 | 52 | 46 | 0.0 | 0.0 | 0.00 | 0.32 | 0.32 | 79 | 1011.2 |
| 20260505230313 | 52 | 46 | 0.0 | 0.0 | 0.00 | 0.32 | 0.32 | 80 | 1011.2 |
| 20260505225809 | 53 | 46 | 0.0 | 0.0 | 0.00 | 0.32 | 0.32 | 79 | 1010.8 |
| 20260505225307 | 53 | 46 | 0.0 | 0.0 | 0.00 | 0.32 | 0.32 | 80 | 1010.8 |
| 20260505224802 | 53 | 46 | 0.0 | 0.0 | 0.00 | 0.32 | 0.32 | 79 | 1010.8 |
| 20260505224300 | 53 | 46 | 0.0 | 0.0 | 0.00 | 0.32 | 0.32 | 78 | 1010.6 |
| 20260505223757 | 53 | 46 | 0.0 | 0.0 | 0.00 | 0.32 | 0.32 | 78 | 1010.9 |
| 20260505223254 | 52 | 46 | 0.0 | 0.0 | 0.00 | 0.32 | 0.32 | 77 | 1011.0 |
| 20260505222749 | 52 | 46 | 0.0 | 0.0 | 0.00 | 0.32 | 0.32 | 78 | 1011.1 |
| 20260505222246 | 52 | 46 | 0.0 | 0.0 | 0.00 | 0.32 | 0.32 | 78 | 1010.9 |
| 20260505221743 | 52 | 46 | 0.0 | 0.0 | 0.00 | 0.32 | 0.32 | 79 | 1010.9 |
| 20260505221240 | 52 | 47 | 0.0 | 0.0 | 0.00 | 0.32 | 0.32 | 78 | 1010.9 |
| 20260505220736 | 52 | 47 | 0.0 | 0.0 | 0.00 | 0.32 | 0.32 | 80 | 1010.7 |
| 20260505220234 | 52 | 47 | 0.0 | 0.0 | 0.00 | 0.32 | 0.32 | 80 | 1010.9 |
| 20260505215732 | 52 | 46 | 0.0 | 0.0 | 0.00 | 0.32 | 0.32 | 80 | 1011.0 |
| 20260505215229 | 52 | 47 | 0.0 | 0.0 | 0.00 | 0.32 | 0.32 | 78 | 1010.9 |
| 20260505214727 | 52 | 47 | 0.0 | 0.0 | 0.00 | 0.32 | 0.32 | 79 | 1011.3 |
| 20260505214224 | 52 | 47 | 0.0 | 0.0 | 0.00 | 0.32 | 0.32 | 79 | 1011.2 |
| 20260505213721 | 52 | 47 | 0.0 | 0.0 | 0.00 | 0.32 | 0.32 | 77 | 1011.1 |
| 20260505213219 | 52 | 48 | 0.0 | 0.0 | 0.00 | 0.32 | 0.32 | 76 | 1010.9 |
| 20260505212714 | 52 | 48 | 0.0 | 0.0 | 0.00 | 0.32 | 0.32 | 79 | 1011.2 |
| 20260505212212 | 52 | 48 | 0.0 | 0.0 | 0.00 | 0.32 | 0.32 | 77 | 1011.0 |
| 20260505211709 | 52 | 49 | 0.0 | 0.0 | 0.00 | 0.32 | 0.32 | 76 | 1010.9 |
| 20260505211206 | 52 | 48 | 0.0 | 0.0 | 0.00 | 0.32 | 0.32 | 76 | 1011.1 |
| 20260505210703 | 52 | 29 | 1.0 | 1.0 | 0.00 | 0.32 | 0.32 | 75 | 1011.5 |
| 20260505210159 | 52 | 50 | 0.0 | 0.0 | 0.00 | 0.32 | 0.32 | 76 | 1011.2 |
| 20260505205657 | 52 | 49 | 0.0 | 0.0 | 0.00 | 0.32 | 0.32 | 76 | 1011.3 |
| 20260505205155 | 52 | 49 | 0.0 | 0.0 | 0.00 | 0.32 | 0.32 | 76 | 1011.4 |
| 20260505204651 | 51 | 53 | 0.0 | 0.0 | 0.00 | 0.32 | 0.32 | 77 | 1011.3 |
| 20260505204149 | 51 | 49 | 1.0 | 1.0 | 0.00 | 0.32 | 0.32 | 76 | 1011.4 |
| 20260505203646 | 51 | 49 | 1.0 | 1.0 | 0.00 | 0.32 | 0.32 | 75 | 1011.6 |
| 20260505203142 | 51 | 47 | 0.0 | 1.0 | 0.00 | 0.32 | 0.32 | 76 | 1011.5 |
| 20260505202637 | 51 | 37 | 0.0 | 2.0 | 0.00 | 0.32 | 0.32 | 76 | 1011.2 |
| 20260505202134 | 51 | 50 | 0.0 | 1.0 | 0.00 | 0.32 | 0.32 | 79 | 1011.5 |
| 20260505201626 | 51 | 45 | 0.0 | 1.0 | 0.00 | 0.32 | 0.32 | 79 | 1011.2 |
| 20260505201123 | 51 | 50 | 0.0 | 0.0 | 0.00 | 0.32 | 0.32 | 80 | 1011.4 |
| 20260505200621 | 51 | 54 | 0.0 | 2.0 | 0.00 | 0.32 | 0.32 | 79 | 1011.4 |
| 20260505200118 | 51 | 66 | 0.0 | 0.0 | 0.00 | 0.32 | 0.32 | 87 | 1011.7 |
| 20260505195614 | 51 | 51 | 0.0 | 1.0 | 0.00 | 0.32 | 0.32 | 87 | 1011.8 |
| 20260505195111 | 51 | 48 | 0.0 | 0.0 | 0.00 | 0.32 | 0.32 | 88 | 1011.6 |
| 20260505194608 | 51 | 64 | 0.0 | 0.0 | 0.00 | 0.32 | 0.32 | 87 | 1011.5 |
| 20260505194104 | 51 | 71 | 0.0 | 0.0 | 0.00 | 0.32 | 0.32 | 86 | 1011.8 |
| 20260505193601 | 50 | 55 | 0.0 | 1.0 | 0.00 | 0.32 | 0.32 | 87 | 1011.6 |
| 20260505193058 | 50 | 54 | 0.0 | 0.0 | 0.00 | 0.32 | 0.32 | 88 | 1011.7 |
| 20260505192557 | 50 | 64 | 0.0 | 0.0 | 0.00 | 0.32 | 0.32 | 85 | 1011.7 |
| 20260505192054 | 50 | 64 | 0.0 | 0.0 | 0.00 | 0.32 | 0.32 | 86 | 1011.7 |